Aurora, IL

10:04 AM CDT on April 26, 2017 (GMT -0500)
Aurora Municipal

Weather History for KARR - March, 2012

Change the Weather History Date:

Sunday, March 4, 2012

  Actual Average Record
Temperature  
Mean Temperature 26 °F 32 °F  
Max Temperature 29 °F 41 °F 63 °F (2000)
Min Temperature 22 °F 22 °F -12 °F (2002)
Degree Days  
Heating Degree Days 39 33  
Month to date heating degree days 132 136  
Since 1 July heating degree days 5274  
Cooling Degree Days 0 0  
Month to date cooling degree days 0 0  
Year to date cooling degree days 0 0  
Moisture  
Dew Point 21 °F    
Average Humidity 79    
Maximum Humidity 88    
Minimum Humidity 69    
Precipitation  
Precipitation T in 0.07 in 0.83 in (2011)
Month to date precipitation 0.23 0.27  
Year to date precipitation 1.95 3.36  
Sea Level Pressure  
Sea Level Pressure 29.91 in    
Wind  
Wind Speed 10 mph (NW)    
Max Wind Speed 20 mph    
Max Gust Speed 23 mph    
Visibility 9 miles    
Events Snow    
T = Trace of Precipitation, MM = Missing Value Source: NWS Daily Summary

Daily Weather History Graph

Daily Weather History Graph

Search for Another Location

Airport or City:

Trip Planner

Search our weather history database for the weather conditions in past years. The results will help you decide how hot, cold, wet, or windy it might be!

Date:

Astronomy

Mar. 04, 2012 Rise Set
Actual Time 6:23 AM CST 5:48 PM CST
Civil Twilight 5:55 AM CST 6:16 PM CST
Nautical Twilight 5:23 AM CST 6:48 PM CST
Astronomical Twilight 4:50 AM CST 7:20 PM CST
Moon 1:57 PM CST (3/4) 3:46 AM CST (3/4)
Length of Visible Light 12h 20m
Length of Day
11h 25m
Waxing Gibbous, 84% of the Moon is Illuminated
Mar 4
Waxing Gibbous
Mar 8
Full
Mar 14
Last Quarter
Mar 22
New
Mar 30
First Quarter

Hourly Weather History & Observations

Time (CST) Temp. Windchill Dew Point Humidity Pressure Visibility Wind Dir Wind Speed Gust Speed Precip Events Conditions
12:52 AM 28.9 °F 21.1 °F 23.0 °F 78% 29.85 in 10.0 mi WNW 8.1 mph - N/A   Overcast
1:52 AM 28.0 °F 19.3 °F 21.9 °F 78% 29.85 in 10.0 mi WNW 9.2 mph - N/A   Overcast
2:52 AM 28.0 °F 20.0 °F 23.0 °F 81% 29.83 in 10.0 mi NW 8.1 mph - N/A   Overcast
3:52 AM 27.0 °F 17.3 °F 23.0 °F 85% 29.84 in 9.0 mi NW 10.4 mph - 0.00 in   Overcast
4:52 AM 27.0 °F 18.0 °F 23.0 °F 85% 29.85 in 4.0 mi NW 9.2 mph - 0.00 in Snow Light Snow
5:52 AM 26.1 °F 16.2 °F 21.9 °F 84% 29.86 in 10.0 mi WNW 10.4 mph - 0.00 in   Overcast
6:52 AM 25.0 °F 15.5 °F 21.0 °F 85% 29.87 in 8.0 mi WNW 9.2 mph - 0.00 in   Overcast
7:52 AM 25.0 °F 14.2 °F 19.0 °F 78% 29.88 in 10.0 mi WNW 11.5 mph - N/A   Overcast
8:10 AM 24.8 °F 12.9 °F 17.6 °F 74% 29.86 in 10.0 mi WNW 13.8 mph - N/A   Overcast
8:52 AM 25.0 °F 13.6 °F 19.9 °F 81% 29.90 in 10.0 mi WNW 12.7 mph - N/A   Overcast
9:52 AM 26.1 °F 14.0 °F 19.9 °F 78% 29.90 in 10.0 mi WNW 15.0 mph - N/A   Mostly Cloudy
10:52 AM 26.1 °F 14.5 °F 19.9 °F 78% 29.90 in 10.0 mi West 13.8 mph 19.6 mph N/A   Scattered Clouds
11:52 AM 27.0 °F 18.0 °F 21.9 °F 81% 29.91 in 10.0 mi WNW 9.2 mph - N/A   Mostly Cloudy
12:52 PM 27.0 °F 18.7 °F 21.0 °F 78% 29.88 in 10.0 mi WNW 8.1 mph - N/A   Mostly Cloudy
1:52 PM 28.0 °F 20.8 °F 21.0 °F 75% 29.88 in 10.0 mi WNW 6.9 mph - N/A   Mostly Cloudy
2:52 PM 28.0 °F 20.8 °F 21.9 °F 78% 29.88 in 10.0 mi NW 6.9 mph - N/A   Overcast
3:52 PM 28.9 °F 20.4 °F 23.0 °F 78% 29.89 in 10.0 mi West 9.2 mph - N/A   Overcast
4:32 PM 28.4 °F 18.5 °F 21.2 °F 74% 29.88 in 10.0 mi WNW 11.5 mph - N/A   Overcast
4:52 PM 28.0 °F 19.3 °F 21.9 °F 78% 29.92 in 10.0 mi WNW 9.2 mph - N/A   Overcast
5:52 PM 28.0 °F 18.6 °F 19.9 °F 72% 29.94 in 10.0 mi WNW 10.4 mph - N/A   Overcast
6:52 PM 28.0 °F 18.1 °F 21.0 °F 75% 29.95 in 10.0 mi NNW 11.5 mph - N/A   Overcast
7:52 PM 27.0 °F 16.7 °F 21.0 °F 78% 29.96 in 10.0 mi NNW 11.5 mph - N/A   Mostly Cloudy
8:52 PM 27.0 °F 17.3 °F 23.0 °F 85% 29.98 in 8.0 mi NNW 10.4 mph - N/A   Overcast
9:52 PM 26.1 °F 16.2 °F 21.9 °F 84% 30.01 in 8.0 mi NNW 10.4 mph - N/A   Overcast
10:52 PM 23.0 °F 12.4 °F 19.9 °F 88% 30.03 in 8.0 mi NNW 10.4 mph - N/A   Clear
11:52 PM 21.9 °F 11.7 °F 18.0 °F 85% 30.05 in 9.0 mi NNW 9.2 mph - N/A   Clear